Wind_Speed
4 4 6 6 6 7 9 11 12 13 16 17 18 19 17 19 20 20 20 20 20 21 21 21 20 21 21 20 20 21 22 23 24 25 25 27 27 28 29 28 28 29 29 29
4 6 8 8 10 11 10 12 13 14 15 18 17 16 14 17 20 19 19 20 20 21 21 21 20 21 21 21 22 22 23 24 25 26 27 28 28 29 29 30 29 30 30 30
6 9 10 11 13 12 12 13 13 15 14 14 15 16 15 16 18 18 19 20 21 21 21 21 20 21 21 22 22 24 24 25 26 27 28 29 29 30 30 30 31 31 31 30
7 10 12 12 13 13 14 15 15 14 11 13 15 16 14 14 17 19 18 19 19 19 20 21 21 21 22 23 23 24 26 26 27 28 29 30 31 31 30 30 31 31 30 30
9 10 11 12 12 13 14 15 16 15 13 13 12 14 15 15 17 18 18 18 18 18 19 19 20 21 23 23 23 25 26 27 28 29 30 31 31 31 30 30 30 30 30 29
10 10 10 11 12 12 13 14 13 11 11 12 9 12 14 16 18 18 18 20 19 19 19 19 20 22 22 23 24 25 26 27 28 29 29 30 30 30 29 28 29 28 28 29
10 11 10 10 10 11 11 11 10 10 10 10 10 13 15 16 17 17 19 19 19 20 21 20 21 23 24 24 25 26 26 27 28 28 28 28 29 29 29 28 28 28 28 28
10 10 11 11 11 10 10 10 10 12 13 12 12 14 15 14 17 19 19 19 18 20 20 20 21 23 24 25 25 26 26 27 27 27 27 27 27 28 27 28 28 28 28 28
12 10 10 9 10 10 9 9 12 13 13 13 12 13 15 17 18 17 18 18 18 19 19 21 22 22 23 24 24 24 25 25 26 26 26 26 27 27 27 27 27 28 28 28
12 12 10 8 8 10 10 12 13 11 12 12 12 13 15 16 18 19 18 19 19 20 20 21 22 22 23 23 24 24 23 24 24 25 26 26 26 26 27 27 27 27 27 26
13 12 11 9 9 9 9 11 12 12 12 14 14 14 13 15 16 17 18 18 19 20 20 20 21 21 22 22 22 22 23 23 24 25 25 26 25 25 25 26 26 25 26 25
14 14 13 10 11 10 10 10 11 13 14 14 16 17 15 15 15 17 17 18 19 20 19 19 20 21 21 21 21 22 23 23 23 24 24 24 24 25 25 25 25 25 26 25
14 14 13 12 11 10 10 10 10 12 14 15 18 17 16 16 16 17 17 18 19 21 20 19 20 20 20 21 22 22 22 22 23 23 24 23 24 24 24 24 24 24 25 25
15 14 13 12 11 12 12 12 12 14 15 15 16 17 17 16 15 17 19 19 19 19 19 20 20 20 21 21 22 22 22 22 23 23 23 23 23 22 22 22 22 23 23 24
14 14 12 11 11 12 14 14 13 14 14 15 16 17 17 17 16 18 18 19 18 18 19 19 20 21 21 22 21 21 21 22 22 22 22 21 21 20 20 20 21 22 22 22
13 12 10 10 11 12 13 13 13 14 16 17 17 16 16 15 16 18 17 18 18 18 19 19 19 20 20 21 20 20 21 21 21 21 20 19 18 19 19 19 19 20 21 21
13 12 11 10 10 11 12 12 13 14 15 16 16 16 17 15 14 16 17 18 19 19 18 18 18 19 19 19 19 19 19 19 19 18 18 17 17 17 17 17 18 19 19 20
14 13 12 12 13 14 13 14 14 14 14 15 16 16 15 14 14 15 16 17 18 18 17 17 18 19 19 18 18 18 19 18 17 16 15 16 15 15 16 16 17 18 18 19
14 13 13 12 12 13 13 14 14 13 14 14 15 14 13 13 14 15 16 17 17 17 17 18 18 17 17 17 18 17 17 17 16 15 15 14 14 15 15 16 17 17 18 18
14 13 13 13 13 13 13 15 14 14 14 14 13 12 12 13 13 14 15 15 16 16 17 17 16 16 16 17 17 16 15 15 15 15 15 14 14 15 15 16 16 16 17 17
14 14 14 15 14 14 15 15 14 15 14 14 14 13 14 14 14 14 14 15 16 16 16 15 15 15 15 16 16 15 14 14 14 14 14 14 14 14 15 15 15 16 16 17
15 15 15 15 15 15 15 16 16 16 15 15 14 14 13 13 12 13 14 15 15 15 15 14 13 14 14 14 14 13 13 14 14 13 13 14 14 14 15 15 16 16 17 18
16 16 16 16 16 16 16 17 17 15 15 15 14 13 12 12 12 13 13 14 14 13 13 13 12 12 12 11 12 12 13 13 13 12 13 13 14 15 16 17 17 17 18 18
18 17 17 17 16 17 17 17 17 16 15 14 13 13 12 12 12 12 12 12 11 11 12 12 11 11 10 10 11 12 12 12 12 12 13 13 15 15 16 17 18 18 18 19
17 18 18 17 17 17 17 17 17 17 15 14 14 14 14 13 12 12 11 11 11 12 11 10 9 9 9 10 10 11 11 10 10 12 13 14 15 16 17 18 18 19 20 20
17 18 19 19 18 18 17 17 16 16 16 15 15 14 14 12 11 11 11 10 10 10 9 8 8 8 9 9 10 11 11 10 10 12 13 14 15 16 18 18 18 19 20 20
Wind_Direction
327 320 298 288 278 275 264 261 262 270 272 275 276 271 272 275 276 273 270 269 271 273 275 276 277 277 276 273 274 276 279 283 284 286 286 289 290 291 292 291 293 295 295 297
320 292 282 277 271 269 269 271 267 268 269 275 278 275 273 278 282 280 275 273 272 275 276 276 277 276 276 276 276 277 279 283 284 285 285 288 289 290 291 293 294 295 295 295
286 287 276 272 270 271 270 267 268 272 271 274 277 278 278 275 277 278 274 278 279 278 277 277 276 275 274 274 276 277 281 283 284 285 286 289 290 291 290 291 291 292 295 297
285 281 276 273 275 270 263 263 263 267 269 271 274 277 274 274 278 279 277 277 280 281 279 280 277 273 274 275 276 278 281 283 285 286 288 290 290 290 289 290 292 294 295 296
303 290 279 277 275 265 260 263 268 268 269 265 267 272 276 275 272 276 275 274 277 283 282 280 280 278 277 276 279 281 283 284 286 288 290 291 291 290 290 290 292 293 295 296
313 304 288 279 273 269 268 272 275 275 275 277 274 269 276 277 276 276 278 279 278 283 285 285 284 284 283 281 282 284 284 283 286 288 290 293 292 291 290 291 293 293 296 296
312 308 296 281 276 276 274 283 293 288 274 274 273 270 274 272 278 283 282 280 284 286 289 290 288 287 285 284 284 284 283 284 286 287 290 293 293 293 292 291 292 294 295 296
300 303 296 282 280 277 275 279 285 287 284 270 260 266 275 275 278 281 281 281 286 286 288 291 290 290 287 286 286 286 283 284 285 287 289 291 294 294 294 295 294 295 296 296
292 286 295 290 289 288 287 278 279 281 285 286 282 278 283 284 283 286 288 286 286 288 292 292 292 292 292 292 292 292 289 288 287 288 291 292 294 294 295 296 295 295 295 296
290 285 288 286 291 297 299 287 284 281 281 280 278 275 280 283 286 291 291 290 288 291 295 295 295 295 296 295 294 293 293 293 291 292 293 294 294 294 295 297 296 296 296 297
294 290 288 288 287 288 285 290 289 291 279 279 287 287 288 288 295 297 297 295 292 293 293 296 298 298 299 298 297 296 297 297 295 295 297 297 295 296 296 296 297 295 297 297
291 292 291 288 288 282 278 279 283 288 284 284 288 293 295 295 296 297 299 297 295 294 295 299 301 302 302 301 301 300 299 299 299 298 299 300 299 299 298 296 296 296 298 297
295 292 294 292 287 279 272 271 274 282 288 288 290 294 299 297 298 302 300 300 299 299 297 301 303 306 305 306 304 303 303 302 302 301 301 301 301 301 299 296 296 298 299 300
299 295 292 293 293 286 280 279 274 276 284 289 290 290 289 292 300 305 304 303 305 305 306 307 306 309 310 309 308 306 307 307 305 304 302 301 302 303 301 300 299 301 302 302
301 298 296 294 297 291 290 290 282 280 284 288 287 284 289 294 299 302 303 304 307 310 311 308 308 310 311 311 311 311 310 310 307 306 305 304 304 305 303 303 302 303 303 303
304 303 297 301 303 302 299 297 289 284 285 284 283 284 290 293 297 299 303 305 308 308 309 309 310 312 314 315 315 315 314 312 311 309 309 308 306 306 305 304 305 305 305 307
307 307 300 301 302 304 307 301 294 289 285 283 284 288 293 298 301 302 302 304 308 311 312 312 314 319 320 320 320 319 319 319 318 316 314 313 311 311 310 308 311 311 310 310
305 301 299 299 302 304 309 302 296 293 291 286 285 289 293 294 296 299 303 306 308 311 313 316 318 319 321 322 323 325 326 327 328 327 324 321 317 317 317 315 317 318 316 315
305 300 298 297 304 309 308 304 304 301 296 290 293 291 288 293 295 297 302 305 310 314 317 317 318 319 322 324 326 327 329 331 332 333 333 330 325 325 326 324 322 321 320 318
300 301 296 297 301 309 309 306 303 303 301 296 297 293 292 296 297 301 306 309 313 316 318 320 319 319 323 327 329 331 334 334 334 336 335 335 333 329 327 329 328 326 325 323
298 299 296 296 300 302 304 304 303 304 299 295 296 297 295 296 299 301 306 310 313 316 319 321 322 322 326 331 333 334 333 334 334 335 336 337 339 337 335 334 334 333 332 329
295 296 296 296 297 297 298 296 298 300 295 294 296 298 296 297 301 301 305 308 314 317 319 321 321 324 328 332 335 337 335 335 336 336 338 340 342 342 343 342 340 339 336 332
295 293 292 293 294 293 293 295 295 293 294 294 293 296 295 296 297 299 305 310 314 317 319 322 323 327 332 336 338 339 338 338 339 341 343 343 344 345 344 344 343 341 338 337
297 295 291 292 292 291 290 291 290 290 292 292 291 294 292 293 295 298 305 308 311 318 322 325 330 334 337 342 344 342 342 340 341 344 346 347 347 347 345 345 344 343 341 340
294 292 292 289 291 288 286 286 287 289 289 291 292 292 289 291 292 296 302 307 309 315 320 324 329 338 344 344 344 346 345 344 346 346 347 349 350 348 346 344 346 345 344 342
290 292 292 292 291 289 288 287 288 288 287 289 289 287 288 292 291 291 296 300 305 311 316 324 331 337 339 341 342 344 348 349 348 348 348 349 349 349 349 347 346 346 346 344
Height
5830 5832 5832 5832 5832 5833 5833 5834 5835 5835 5834 5833 5832 5832 5830 5831 5831 5831 5832 5832 5832 5832 5831 5831 5832 5832 5832 5831 5831 5831 5831 5830 5829 5828 5827 5826 5824 5823 5822 5820 5819 5817 5815 5812
5831 5832 5832 5832 5832 5831 5831 5831 5831 5831 5831 5830 5829 5829 5829 5829 5828 5828 5828 5828 5828 5828 5828 5827 5828 5827 5827 5827 5827 5826 5826 5825 5824 5823 5822 5821 5819 5817 5816 5814 5813 5811 5809 5806
5830 5831 5831 5830 5830 5830 5829 5829 5828 5828 5827 5827 5827 5827 5827 5826 5825 5824 5824 5824 5823 5823 5823 5822 5822 5822 5823 5823 5822 5822 5821 5820 5819 5818 5817 5815 5813 5811 5809 5808 5807 5805 5803 5801
5829 5829 5828 5828 5828 5826 5826 5826 5825 5824 5823 5824 5825 5823 5823 5822 5821 5820 5819 5819 5818 5819 5819 5818 5817 5817 5817 5817 5817 5817 5816 5814 5813 5812 5811 5809 5807 5805 5804 5802 5801 5799 5797 5795
5827 5827 5826 5826 5825 5823 5823 5822 5821 5821 5820 5820 5821 5821 5821 5819 5818 5816 5815 5815 5815 5815 5815 5813 5813 5812 5812 5811 5810 5811 5810 5808 5807 5806 5804 5803 5801 5799 5797 5796 5794 5792 5790 5788
5826 5825 5824 5823 5821 5820 5819 5818 5818 5818 5818 5817 5818 5818 5818 5815 5814 5813 5812 5812 5811 5811 5810 5810 5809 5808 5806 5806 5805 5805 5803 5802 5801 5800 5798 5796 5794 5792 5790 5789 5787 5786 5783 5781
5824 5823 5821 5820 5818 5817 5816 5816 5815 5816 5816 5816 5816 5815 5815 5813 5811 5810 5809 5808 5808 5808 5806 5805 5805 5803 5802 5801 5800 5799 5797 5796 5795 5793 5792 5789 5788 5786 5783 5781 5781 5779 5777 5776
5822 5821 5819 5818 5816 5816 5815 5815 5815 5813 5812 5812 5812 5812 5811 5808 5807 5806 5805 5805 5804 5803 5802 5801 5800 5798 5797 5796 5794 5792 5791 5789 5788 5787 5786 5784 5782 5780 5777 5775 5774 5772 5770 5769
5817 5817 5817 5815 5814 5813 5813 5813 5812 5811 5810 5809 5808 5808 5806 5806 5803 5802 5802 5801 5801 5799 5798 5797 5796 5794 5792 5790 5788 5786 5784 5782 5781 5780 5779 5777 5776 5774 5771 5769 5768 5766 5764 5762
5814 5814 5814 5813 5813 5812 5811 5810 5809 5808 5806 5806 5806 5805 5804 5802 5801 5800 5798 5798 5796 5795 5794 5793 5791 5789 5787 5785 5783 5781 5779 5777 5775 5774 5773 5771 5769 5767 5765 5763 5762 5760 5758 5756
5811 5810 5811 5810 5810 5809 5810 5809 5807 5805 5803 5803 5801 5803 5800 5798 5797 5796 5796 5795 5793 5792 5790 5788 5787 5785 5783 5780 5778 5776 5774 5772 5770 5769 5767 5765 5763 5761 5759 5758 5756 5754 5752 5750
5809 5808 5806 5807 5807 5806 5805 5805 5805 5803 5801 5800 5799 5801 5797 5795 5793 5794 5793 5791 5789 5787 5786 5785 5782 5779 5777 5775 5773 5771 5769 5767 5765 5763 5761 5759 5757 5755 5753 5752 5750 5748 5746 5744
5806 5805 5804 5804 5806 5804 5802 5802 5801 5800 5798 5797 5796 5798 5794 5791 5791 5790 5789 5787 5785 5783 5782 5781 5778 5775 5773 5771 5768 5766 5764 5762 5760 5758 5756 5753 5751 5749 5748 5746 5744 5742 5740 5739
5803 5802 5801 5800 5799 5798 5799 5799 5798 5797 5795 5794 5793 5793 5791 5789 5788 5786 5785 5784 5782 5780 5778 5776 5775 5772 5769 5767 5764 5762 5759 5757 5754 5752 5750 5748 5746 5744 5742 5740 5739 5737 5735 5733
5800 5799 5797 5796 5796 5795 5795 5795 5794 5794 5792 5791 5790 5789 5788 5787 5786 5784 5782 5781 5779 5777 5775 5773 5771 5768 5765 5763 5760 5757 5755 5752 5749 5747 5745 5743 5741 5739 5737 5735 5733 5731 5729 5727
5796 5795 5795 5795 5794 5792 5792 5792 5791 5790 5789 5788 5787 5786 5784 5783 5782 5781 5779 5778 5776 5774 5771 5769 5767 5764 5762 5759 5756 5753 5750 5747 5745 5742 5740 5738 5736 5734 5733 5731 5729 5727 5725 5723
5794 5793 5792 5792 5791 5790 5790 5789 5787 5786 5785 5785 5784 5783 5781 5779 5779 5778 5776 5775 5773 5771 5768 5766 5764 5761 5758 5755 5752 5749 5747 5744 5741 5738 5736 5734 5732 5730 5729 5727 5725 5723 5720 5718
5793 5791 5790 5789 5789 5788 5789 5785 5783 5782 5782 5781 5780 5778 5778 5777 5777 5775 5773 5772 5770 5768 5766 5763 5761 5758 5756 5753 5750 5747 5744 5741 5738 5735 5733 5731 5729 5728 5726 5723 5721 5719 5716 5714
5790 5789 5788 5787 5786 5785 5785 5783 5781 5780 5778 5777 5776 5775 5775 5774 5773 5772 5771 5769 5767 5765 5763 5760 5758 5756 5753 5750 5747 5744 5741 5739 5736 5734 5731 5729 5727 5725 5723 5721 5718 5716 5713 5711
5788 5787 5786 5785 5783 5782 5783 5780 5778 5778 5775 5773 5772 5772 5772 5770 5770 5770 5768 5766 5764 5762 5760 5758 5756 5753 5751 5748 5745 5742 5739 5737 5735 5732 5730 5728 5726 5723 5721 5718 5715 5713 5710 5708
5786 5785 5784 5782 5780 5779 5779 5777 5776 5776 5774 5772 5770 5768 5769 5768 5767 5766 5765 5763 5761 5760 5758 5755 5753 5751 5748 5746 5743 5741 5738 5736 5734 5732 5729 5727 5724 5722 5719 5716 5714 5711 5708 5706
5784 5782 5781 5780 5779 5779 5776 5774 5773 5772 5770 5768 5767 5766 5765 5765 5764 5763 5762 5761 5758 5757 5755 5753 5751 5749 5747 5744 5741 5739 5738 5735 5733 5731 5728 5726 5723 5721 5718 5715 5713 5710 5707 5704
5781 5780 5778 5777 5777 5775 5773 5771 5769 5767 5767 5766 5765 5764 5763 5762 5761 5761 5760 5758 5756 5755 5753 5751 5749 5747 5745 5743 5741 5739 5737 5735 5732 5730 5728 5725 5723 5720 5717 5714 5712 5708 5705 5702
5777 5775 5774 5773 5772 5771 5769 5767 5765 5764 5764 5763 5762 5761 5760 5759 5759 5758 5757 5756 5754 5752 5751 5750 5748 5746 5744 5742 5741 5739 5737 5734 5732 5730 5728 5725 5722 5719 5716 5714 5710 5707 5704 5700
5773 5771 5770 5768 5768 5767 5765 5764 5762 5761 5760 5759 5758 5758 5757 5756 5756 5755 5755 5754 5752 5751 5750 5748 5747 5745 5744 5742 5740 5739 5736 5734 5732 5730 5727 5724 5722 5719 5716 5712 5709 5706 5702 5698
5769 5767 5766 5764 5763 5762 5761 5760 5759 5757 5756 5756 5755 5755 5754 5753 5752 5752 5752 5751 5751 5749 5748 5747 5746 5745 5743 5742 5740 5738 5736 5734 5732 5729 5727 5724 5721 5718 5715 5712 5708 5704 5701 5697